Date String (YYYY-MM-DD hh:mm:ss) UTC,Instrument flags,Ambient pressure (hPa),Sample flow (lpm),Bypass flow (lpm),Sample temperature (°C),Ambient temperature (°C),ASC tube jacket temperature (°C),LED temperature (°C),Box temperature (°C),Sample RH (%),Span deviation,Mass concentration (μg/m³),Mass concentration (μg/m³),Mass concentration (μg/m³)
DateTimeUTC,F1_M11,P_M11,Q1_M11,Q2_M11,T1_M11,T2_M11,T3_M11,T4_M11,T5_M11,U1_M11,ZSPAN_M11,X0_M11,X2_M11,X1_M11
2022-03-22 14:00:00,,0828.5,5.02,0.00,22.1,21.5,00.0,31.2,23.8,09.6,0000.0,0002.26,0001.06,0000.80
2022-03-22 14:01:00,,0828.5,5.00,0.00,22.1,21.4,00.0,31.2,23.7,09.4,0000.0,0002.22,0001.04,0000.79
2022-03-22 14:02:00,,0828.5,5.01,0.00,22.1,21.3,00.0,31.2,23.7,09.4,0000.0,0002.14,0001.02,0000.79
2022-03-22 14:03:00,,0829.0,5.00,0.00,22.0,21.3,00.0,31.1,23.7,09.6,0000.0,0002.15,0001.03,0000.79
2022-03-22 14:04:00,,0828.7,5.00,0.00,22.0,21.2,00.0,31.1,23.6,09.6,0000.0,0002.16,0001.05,0000.79
2022-03-22 14:05:00,,0828.8,5.01,0.00,22.0,21.2,00.0,31.1,23.6,09.6,0000.0,0002.16,0001.05,0000.79
2022-03-22 14:06:00,,0828.5,4.98,0.00,22.0,21.1,00.0,31.1,23.6,09.6,0000.0,0002.26,0001.09,0000.79
2022-03-22 14:07:00,,0828.7,5.00,0.00,21.9,21.1,00.0,31.1,23.5,09.7,0000.0,0002.29,0001.11,0000.80
2022-03-22 14:08:00,,0828.7,5.00,0.00,21.9,21.0,00.0,31.1,23.5,09.6,0000.0,0002.32,0001.10,0000.80
2022-03-22 14:09:00,,0828.6,5.01,0.00,21.9,21.4,00.0,31.1,23.6,09.6,0000.0,0001.70,0001.07,0000.78
2022-03-22 14:10:00,,0828.6,4.99,0.00,22.1,22.4,00.0,31.1,23.9,09.6,0000.0,0001.76,0001.08,0000.78
2022-03-22 14:11:00,,0828.6,5.01,0.00,22.2,23.3,00.0,31.1,24.2,09.5,0000.0,0002.04,0001.14,0000.77
2022-03-22 14:12:00,,0828.5,4.99,0.00,22.3,23.3,00.0,31.1,24.2,09.6,0000.0,0002.09,0001.16,0000.77
2022-03-22 14:13:00,,0828.8,5.00,0.00,22.3,23.0,00.0,31.2,24.2,09.5,0000.0,0002.21,0001.20,0000.77
2022-03-22 14:14:00,,0828.8,5.00,0.00,22.3,22.6,00.0,31.2,24.1,09.2,0000.0,0002.24,0001.22,0000.78
2022-03-22 14:15:00,,0828.9,4.99,0.00,22.3,22.3,00.0,31.2,24.0,09.2,0000.0,0002.18,0001.20,0000.79
2022-03-22 14:16:00,,0828.4,5.01,0.00,22.3,22.1,00.0,31.2,24.0,09.4,0000.0,0002.29,0001.23,0000.80
2022-03-22 14:17:00,,0828.8,5.00,0.00,22.2,21.9,00.0,31.2,23.9,09.2,0000.0,0002.35,0001.22,0000.80
2022-03-22 14:18:00,,0829.0,5.00,0.00,22.2,21.8,00.0,31.2,23.9,09.2,0000.0,0002.39,0001.22,0000.79
2022-03-22 14:19:00,,0828.6,5.01,0.00,22.2,21.6,00.0,31.2,23.8,09.2,0000.0,0002.27,0001.18,0000.78
2022-03-22 14:20:00,,0828.7,4.98,0.00,22.2,21.5,00.0,31.2,23.8,09.3,0000.0,0002.22,0001.18,0000.79
2022-03-22 14:21:00,,0828.6,5.01,0.00,22.1,21.4,00.0,31.2,23.8,09.3,0000.0,0002.14,0001.17,0000.78
2022-03-22 14:22:00,,0828.6,5.00,0.00,22.1,21.3,00.0,31.2,23.7,09.5,0000.0,0001.90,0001.12,0000.79
2022-03-22 14:23:00,,0828.7,5.00,0.00,22.1,21.3,00.0,31.2,23.7,09.5,0000.0,0001.89,0001.12,0000.80
2022-03-22 14:24:00,,0828.8,5.00,0.00,22.0,21.2,00.0,31.2,23.6,09.5,0000.0,0001.94,0001.10,0000.80
2022-03-22 14:25:00,,0828.7,5.00,0.00,22.0,21.2,00.0,31.1,23.6,09.6,0000.0,0001.89,0001.06,0000.78
2022-03-22 14:26:00,,0828.7,5.00,0.00,22.0,21.1,00.0,31.1,23.6,09.7,0000.0,0001.88,0001.04,0000.76
2022-03-22 14:27:00,,0828.7,5.00,0.00,22.0,21.1,00.0,31.1,23.6,09.7,0000.0,0001.78,0001.00,0000.75
2022-03-22 14:28:00,,0828.8,5.01,0.00,21.9,21.1,00.0,31.1,23.5,09.5,0000.0,0001.62,0000.98,0000.74
2022-03-22 14:29:00,,0829.0,4.99,0.00,22.0,21.7,00.0,31.1,23.7,09.6,0000.0,0001.60,0000.99,0000.74
2022-03-22 14:30:00,,0829.1,5.01,0.00,22.1,22.7,00.0,31.1,24.0,09.6,0000.0,0001.58,0000.97,0000.73
2022-03-22 14:31:00,,0829.0,5.02,0.00,22.3,23.4,00.0,31.2,24.3,09.4,0000.0,0001.60,0001.00,0000.73
2022-03-22 14:32:00,,0828.9,4.98,0.00,22.4,23.2,00.0,31.2,24.3,09.6,0000.0,0001.62,0001.00,0000.73
2022-03-22 14:33:00,,0828.9,5.01,0.00,22.3,22.9,00.0,31.2,24.2,09.5,0000.0,0001.58,0000.98,0000.72
2022-03-22 14:34:00,,0829.2,4.99,0.00,22.3,22.5,00.0,31.2,24.1,09.5,0000.0,0001.70,0001.03,0000.72
2022-03-22 14:35:00,,0829.1,5.01,0.00,22.3,22.2,00.0,31.2,24.0,09.4,0000.0,0001.81,0001.03,0000.72
2022-03-22 14:36:00,,0829.0,4.99,0.00,22.2,22.0,00.0,31.2,23.9,09.5,0000.0,0001.79,0001.03,0000.72
2022-03-22 14:37:00,,0828.9,5.00,0.00,22.2,21.8,00.0,31.2,23.9,09.5,0000.0,0001.84,0001.04,0000.73
2022-03-22 14:38:00,,0828.9,5.00,0.00,22.2,21.6,00.0,31.2,23.8,09.4,0000.0,0002.66,0001.10,0000.74
2022-03-22 14:39:00,,0828.9,5.01,0.00,22.1,21.5,00.0,31.2,23.8,09.4,0000.0,0002.92,0001.16,0000.74
2022-03-22 14:40:00,,0829.0,5.01,0.00,22.1,21.4,00.0,31.2,23.7,09.4,0000.0,0002.94,0001.15,0000.74
2022-03-22 14:41:00,,0829.0,4.99,0.00,22.0,21.3,00.0,31.2,23.6,09.3,0000.0,0002.97,0001.15,0000.74
2022-03-22 14:42:00,,0828.9,5.01,0.00,22.0,21.2,00.0,31.2,23.6,09.4,0000.0,0002.97,0001.14,0000.75
2022-03-22 14:43:00,,0828.9,4.99,0.00,22.0,21.1,00.0,31.1,23.6,09.5,0000.0,0002.94,0001.13,0000.75
2022-03-22 14:44:00,,0828.9,4.99,0.00,21.9,21.1,00.0,31.1,23.5,09.5,0000.0,0002.97,0001.14,0000.75
2022-03-22 14:45:00,,0828.9,5.00,0.00,21.9,21.0,00.0,31.1,23.5,09.5,0000.0,0002.89,0001.12,0000.76
2022-03-22 14:46:00,,0828.9,5.01,0.00,21.9,21.0,00.0,31.1,23.4,09.3,0000.0,0002.81,0001.12,0000.75
2022-03-22 14:47:00,,0828.9,4.99,0.00,21.8,20.9,00.0,31.0,23.4,09.5,0000.0,0002.68,0001.11,0000.74
2022-03-22 14:48:00,,0829.0,5.00,0.00,21.8,20.9,00.0,31.0,23.4,09.5,0000.0,0002.68,0001.10,0000.73
2022-03-22 14:49:00,,0829.0,5.01,0.00,21.8,21.3,00.0,31.0,23.5,09.6,0000.0,0002.51,0001.04,0000.72
2022-03-22 14:50:00,,0829.1,5.00,0.00,22.0,22.3,00.0,31.0,23.8,09.7,0000.0,0003.13,0001.01,0000.72
2022-03-22 14:51:00,,0829.1,4.99,0.00,22.1,23.2,00.0,31.1,24.1,09.5,0000.0,0003.08,0001.00,0000.72
2022-03-22 14:52:00,,0829.1,5.01,0.00,22.2,23.2,00.0,31.1,24.2,09.3,0000.0,0003.06,0001.00,0000.73
2022-03-22 14:53:00,,0829.0,4.99,0.00,22.2,22.9,00.0,31.1,24.1,09.3,0000.0,0003.07,0001.00,0000.72
2022-03-22 14:54:00,,0829.0,5.00,0.00,22.2,22.5,00.0,31.1,24.0,09.2,0000.0,0003.23,0001.02,0000.72
2022-03-22 14:55:00,,0829.0,4.99,0.00,22.2,22.2,00.0,31.1,23.9,09.3,0000.0,0003.19,0000.99,0000.71
2022-03-22 14:56:00,,0828.9,5.01,0.00,22.2,22.0,00.0,31.1,23.9,09.3,0000.0,0003.13,0000.96,0000.70
2022-03-22 14:57:00,,0828.9,4.99,0.00,22.2,21.8,00.0,31.1,23.8,09.0,0000.0,0003.11,0000.94,0000.69
2022-03-22 14:58:00,,0828.9,5.01,0.00,22.1,21.6,00.0,31.1,23.8,09.1,0000.0,0003.17,0000.96,0000.69
2022-03-22 14:59:00,,0828.8,5.00,0.00,22.1,21.5,00.0,31.1,23.7,09.3,0000.0,0003.27,0001.00,0000.69
